This demonstration page uses our WeatherBlox Daily Observations layout. Learn more.

Left ArrowRight Arrow

38.88101, -77.10428

Hourly Observations for March 4, 2019

Temp ( °F °C ) Dew Point ( °F °C ) Humidity (%) Winds ( mph kmh ) Pressure ( in mb ) Visibility ( mi km ) Precip ( " mm )
12:02 am 00:02 Cloudy with Light Rain 38 3.3 34 1.1 86 86 NNW 13 20 29.76 1008 10 16.0934 0 0.0254
12:52 am 00:52 Cloudy with Light Rain 37 2.8 34 1.1 89 89 N 9 15 29.74 1007 7 11.26538 0 0.0254
1:41 am 01:41 Cloudy 37 2.8 33 0.6 86 86 NNW 13 20 29.76 1008 10 16.0934 0.01 0.254
1:52 am 01:52 Cloudy 37 2.8 33 0.6 86 86 NNW 10 17 29.75 1007 10 16.0934 0.01 0.254
2:25 am 02:25 Cloudy 37 2.8 33 0.6 86 86 NNW 13 20 29.74 1007 10 16.0934 0 0
2:52 am 02:52 Cloudy 36 2.2 32 0 86 86 NW 13 20 29.75 1008 8 12.87472 0 0
3:23 am 03:23 Cloudy 36 2.2 32 0 86 86 NNW 13 20 29.76 1008 9 14.48406 0 0
3:52 am 03:52 Cloudy 37 2.8 32 0 82 82 NW 12 19 29.77 1008 10 16.0934 0 0
4:45 am 04:45 Cloudy 37 2.8 31 -0.6 79 79 NW 15 24 29.81 1010 10 16.0934 0 0
4:52 am 04:52 Cloudy 36 2.2 31 -0.6 82 82 NW 15 24 29.8 1009 10 16.0934 0 0
5:36 am 05:36 Mostly Cloudy 36 2.2 29 -1.7 76 76 NW 16 26 29.84 1011 10 16.0934 0 0
5:52 am 05:52 Cloudy 36 2.2 29 -1.7 76 76 NW 13 20 29.85 1011 10 16.0934 0 0
6:52 am 06:52 Mostly Cloudy 36 2.2 28 -2.2 73 73 NNW 14 22 29.88 1012 10 16.0934 0 0
7:52 am 07:52 Mostly Cloudy 38 3.3 27 -2.8 65 65 NW 17 28 29.91 1013 10 16.0934 0 0
8:39 am 08:39 Mostly Cloudy 38 3.3 27 -2.8 65 65 NW 20 31 29.93 1014 10 16.0934 0 0
8:52 am 08:52 Mostly Cloudy 37 2.8 26 -3.3 65 65 NW 17 28 29.93 1014 10 16.0934 0 0
9:12 am 09:12 Mostly Cloudy 36 2.2 25 -3.9 64 64 NW 17 28 29.95 1014 10 16.0934 0 0
9:52 am 09:52 Mostly Cloudy 36 2.2 23 -5 59 59 NW 17 28 29.97 1015 10 16.0934 0 0
10:52 am 10:52 Mostly Cloudy 38 3.3 22 -5.6 52 52 NNW 17 28 29.98 1015 10 16.0934 0 0
11:52 am 11:52 Mostly Cloudy 39 3.9 22 -5.6 50 50 WNW 15 24 29.98 1015 10 16.0934 0 0
12:52 pm 12:52 Mostly Cloudy 38 3.3 20 -6.7 48 48 NW 15 24 29.96 1015 10 16.0934 0 0
1:52 pm 13:52 Mostly Cloudy 40 4.4 19 -7.2 43 43 NW 13 20 29.95 1014 10 16.0934 0 0
2:52 pm 14:52 Mostly Cloudy 42 5.6 19 -7.2 40 40 WNW 14 22 29.95 1014 10 16.0934 0 0
3:52 pm 15:52 Mostly Cloudy 42 5.6 18 -7.8 38 38 NW 13 20 29.96 1015 10 16.0934 0 0
4:52 pm 16:52 Partly Cloudy 41 5 18 -7.8 39 39 NW 14 22 29.97 1015 10 16.0934 0 0
5:52 pm 17:52 Mostly Sunny 39 3.9 17 -8.3 41 41 NW 12 19 29.98 1015 10 16.0934 0 0
6:52 pm 18:52 Mostly Clear 37 2.8 15 -9.4 41 41 NW 13 20 30.01 1016 10 16.0934 0 0
7:52 pm 19:52 Mostly Clear 35 1.7 13 -10.6 40 40 NW 8 13 30.04 1017 10 16.0934 0 0
8:52 pm 20:52 Mostly Clear 33 0.6 12 -11.1 42 42 WNW 12 19 30.06 1018 10 16.0934 0 0
9:52 pm 21:52 Mostly Clear 32 0 13 -10.6 45 45 NNW 14 22 30.09 1019 10 16.0934 0 0
10:52 pm 22:52 Clear 32 0 12 -11.1 43 43 NW 16 26 30.11 1020 10 16.0934 0 0
11:52 pm 23:52 Mostly Clear 31 -0.6 10 -12.2 42 42 NW 15 24 30.12 1020 10 16.0934 0 0

Powered by AerisWeather